Tracking 19572 objects as of 23-Feb-2019
HD Live streaming from Space Station
objects crossing your sky now

COSMOS 1321

Track COSMOS 1321 now!
10-day predictions
COSMOS 1321 is classified as:


NORAD ID: 12976
Int'l Code: 1981-116B
Perigee: 1,488.7 km
Apogee: 1,638.2 km
Inclination: 74.0 °
Period: 117.2 minutes
Semi major axis: 7934 km
RCS: 0.6999 m2 (medium)
Launch date: November 28, 1981
Source: Commonwealth of Independent States (former USSR) (CIS)
Launch site: PLESETSK MISSILE AND SPACE COMPLEX (PKMTR)
aabbcc
Your satellite tracking list
Your tracking list is empty




NASA's NSSDC Master Catalog

Two Line Element Set (TLE):
1 12976U 81116B   19053.94084531 -.00000034 +00000-0 -16619-3 0  9999
2 12976 073.9793 224.7352 0094173 146.3368 022.0423 12.28365146669726
Source of the keplerian elements: AFSPC